Lid_Strength_Index
-1 -1 -1 -1 -1 -0 -0 -0 -0 0 0 -0 -0 -1 -1 -1 -1 2 4 2 4 7 7 6 7 10 10 11 13 11 11 9 9 11 12 13 13 11 12 12 11 12 13 14 13 14 15 7 7 9 9 8 6 7
-0 -1 -1 -1 -0 -0 0 1 0 0 -0 -0 0 -0 -0 -1 -1 -0 5 3 2 6 7 4 5 6 7 8 11 12 11 11 9 12 11 11 11 11 12 13 10 13 10 12 11 12 9 8 8 7 6 6 6 6
-1 -1 -0 -0 0 1 1 1 0 0 0 0 0 0 -0 -0 -0 -0 4 4 5 7 6 7 7 6 6 6 6 12 10 9 11 9 10 10 12 11 12 12 12 9 8 10 10 9 9 8 6 6 5 5 5 5
-1 -1 -0 0 1 1 1 1 1 0 -0 0 0 0 0 0 -0 -0 3 4 5 6 8 8 3 7 5 6 7 8 9 9 10 9 10 10 11 9 11 11 11 9 8 10 11 10 8 7 7 6 5 5 5 5
-0 -0 0 0 0 0 0 0 0 0 0 -0 -0 0 0 0 0 1 3 3 3 5 8 8 5 4 6 7 7 8 9 10 10 10 10 10 9 9 9 10 11 8 9 10 12 8 8 8 6 5 6 6 5 5
-0 0 0 0 0 0 0 0 0 0 0 0 0 0 0 0 0 2 6 3 1 3 6 10 7 6 5 6 7 7 6 7 8 9 9 8 7 8 11 12 9 7 7 7 8 7 6 6 5 4 5 5 4 5
0 0 0 0 0 0 0 0 0 0 0 0 0 1 1 1 3 5 6 3 2 3 7 9 9 6 5 6 7 5 5 6 6 8 9 8 8 7 10 12 8 7 7 6 5 5 7 6 7 5 5 5 5 4
1 1 1 1 1 1 1 1 1 0 0 0 0 1 1 1 2 5 3 2 3 7 6 10 10 8 6 8 9 7 7 6 7 8 7 9 8 8 12 9 8 7 6 6 6 5 5 5 5 5 5 5 6 6
1 1 1 1 1 1 0 -0 -0 0 0 0 1 1 3 4 6 4 -0 1 4 6 9 8 11 12 5 8 7 7 6 10 6 9 9 8 10 12 10 9 8 7 7 6 5 5 5 5 5 5 5 6 6 7
1 1 1 1 1 0 0 -0 -0 1 1 1 3 4 6 3 -0 0 4 5 6 7 9 9 7 10 7 8 9 9 8 10 12 9 7 10 11 9 8 8 7 6 5 5 7 7 6 6 6 6 6 6 6 6
1 1 1 1 0 0 0 0 0 1 2 5 7 7 4 1 4 5 8 9 8 10 7 7 7 9 5 10 10 8 11 10 13 11 11 12 12 9 7 7 7 6 5 5 5 5 4 5 5 6 6 6 6 6
1 1 1 1 1 1 1 1 1 4 6 6 6 5 6 5 7 9 10 8 9 10 8 9 8 7 7 6 9 9 11 10 14 9 12 14 11 8 7 6 6 5 5 5 4 4 4 5 5 5 5 5 5 5
1 1 1 1 1 1 1 1 2 2 3 4 6 6 7 7 12 12 13 11 11 8 7 8 9 7 7 7 9 10 12 13 9 12 14 12 9 7 7 6 5 4 4 4 4 4 4 5 4 4 5 5 5 6
1 1 1 1 1 1 1 1 2 2 5 6 8 11 10 11 10 10 10 9 7 7 7 7 8 9 8 9 9 12 10 10 13 15 14 10 8 7 6 5 5 6 5 5 5 4 5 5 5 5 5 6 6 6
2 1 1 1 1 1 1 1 1 4 5 7 7 12 10 7 7 7 6 7 6 6 7 8 8 8 9 10 10 10 12 14 13 14 11 8 7 6 6 5 5 5 5 5 4 5 5 5 6 6 6 6 6 7
2 2 3 1 1 1 1 2 2 3 5 6 8 9 7 9 8 7 7 7 5 6 6 7 9 11 11 11 11 13 13 15 12 10 8 7 6 6 6 5 5 4 4 5 5 5 6 6 6 7 7 7 7 6
3 5 2 2 2 2 1 3 3 5 6 7 8 7 6 7 8 7 7 6 4 7 10 9 11 12 9 12 12 11 12 10 8 7 6 6 6 6 5 5 4 4 5 5 6 6 6 6 6 7 8 7 7 6
5 4 3 3 4 4 3 3 4 6 8 7 9 7 6 5 7 6 6 5 6 7 8 10 8 11 12 13 12 9 8 7 6 6 6 5 5 5 4 5 5 5 5 5 5 6 6 7 8 7 6 6 6 6
4 4 3 3 4 6 7 6 6 8 8 7 7 5 5 6 5 4 5 5 5 5 6 8 10 11 11 9 9 8 7 7 7 6 5 4 4 4 4 4 4 4 5 6 7 7 7 7 6 5 6 6 6 6
3 3 2 2 3 6 8 8 6 8 10 8 5 6 6 6 5 6 6 5 6 6 8 9 9 8 8 7 6 6 5 5 6 7 6 5 4 4 4 4 4 4 5 6 6 6 5 6 5 5 6 6 6 6
4 3 3 4 5 6 7 8 7 7 7 7 6 6 7 6 7 7 7 5 7 8 9 7 7 6 4 4 4 4 4 4 5 5 6 6 4 4 4 3 3 4 5 6 6 6 6 5 5 4 4 4 5 5
4 3 4 3 6 6 8 7 8 8 9 7 7 6 8 9 8 8 6 7 8 8 6 6 5 5 5 5 5 4 4 4 4 4 4 4 5 5 5 4 4 5 6 5 5 5 4 4 3 3 3 3 4 5
4 4 6 5 6 9 8 7 9 9 9 9 7 9 9 8 7 6 8 8 7 6 5 4 4 4 5 4 4 4 3 4 4 5 4 4 3 4 4 4 4 5 5 5 4 4 4 5 3 3 3 4 4 5
3 6 7 7 7 9 6 8 6 8 8 9 9 11 9 8 6 8 10 8 6 4 5 5 4 5 5 5 5 5 4 4 4 4 4 5 4 4 3 4 4 4 4 4 4 4 4 4 5 4 4 4 4 4
8 8 8 12 6 8 9 8 8 8 9 9 10 10 9 7 9 10 10 8 6 6 5 4 4 5 6 6 5 5 4 5 5 5 4 4 4 4 4 4 4 3 3 4 4 4 3 3 3 2 3 3 4 3
11 7 9 8 8 8 8 10 9 9 8 9 9 8 7 9 10 11 8 6 6 5 5 5 5 5 5 5 5 5 5 4 4 5 5 4 4 5 5 5 5 4 3 3 4 3 3 3 3 3 3 3 5 4
10 9 6 4 6 6 7 7 6 8 9 9 9 8 9 11 11 8 5 5 5 4 4 4 4 5 6 5 5 4 4 3 3 4 4 3 3 3 3 4 5 4 3 3 3 3 3 3 3 3 3 3 3 3
6 6 8 7 7 6 8 8 8 9 8 7 7 9 10 10 9 6 5 5 4 4 3 3 3 4 5 4 4 4 3 3 4 3 4 4 3 3 3 2 2 6 4 4 3 3 4 4 4 4 4 4 4 4
7 6 6 8 7 7 7 8 7 7 6 7 8 9 8 6 4 5 4 4 4 4 5 5 4 3 3 4 4 4 4 4 5 5 6 6 5 4 3 2 3 3 3 3 5 5 4 4 4 5 4 4 4 4
7 5 7 7 8 8 7 6 6 5 5 5 5 6 6 5 4 3 4 4 5 5 5 4 4 4 5 5 4 3 4 4 4 4 5 5 5 4 4 4 4 4 4 3 3 3 4 4 5 4 5 5 5 5
5 6 7 7 8 6 5 4 5 4 5 5 5 6 6 5 4 3 3 4 4 4 4 4 4 4 4 4 3 5 5 4 3 4 4 4 4 4 4 4 4 4 4 4 4 4 4 4 4 4 4 4 5 5
6 7 8 9 8 5 4 5 5 5 6 6 6 5 5 6 7 5 3 3 4 4 4 4 4 4 4 4 3 3 5 4 3 4 4 4 4 4 4 4 4 3 3 3 3 4 4 4 4 4 4 3 2 3
6 6 6 7 7 7 6 6 7 7 6 7 6 6 6 6 7 5 2 2 3 4 4 4 4 4 4 4 4 3 4 4 5 7 6 7 7 7 6 5 4 4 4 4 4 4 4 4 3 4 3 4 3 3